Wind_Gust
14 13 13 8 4 3 8 18 13 15 9 9 9 4 6 4 7 8 11 12 16 10 10 9 14 15 19 12 16 7 6 25 16 24 20 11 5 14 10 20 24 23 22 21 20 22 22 23 23 24 24 23 24 24 24 23 21 21 22 22 22 22 22 21 21 21 21 20 21 20 20 20 19 18 17 16 15 15 15 16 17 17 16 16 17 16 16 15 14 14 14 14 14 15 15 16 15
13 12 10 5 4 6 9 5 11 9 11 12 11 5 7 7 5 5 9 7 4 13 12 8 8 13 12 7 4 3 8 14 8 5 8 7 12 11 12 19 24 27 21 20 20 20 18 21 22 23 24 23 23 24 24 22 21 21 22 22 22 22 22 21 21 21 21 20 21 20 20 20 20 18 17 16 15 13 12 15 16 16 16 16 16 16 15 15 14 13 12 12 13 13 14 14 14
12 11 13 9 9 11 5 12 12 4 4 11 18 10 4 7 8 8 9 11 5 9 8 6 4 5 7 7 9 5 16 3 6 5 6 5 21 9 13 19 20 21 22 19 18 18 17 19 22 22 23 23 23 25 24 22 21 21 21 22 22 22 21 22 21 21 21 21 20 20 20 20 19 18 17 16 14 13 12 14 15 15 14 15 15 14 14 14 13 13 12 12 12 13 13 13 13
8 2 3 7 10 11 5 10 7 10 5 11 20 9 5 3 10 13 14 11 6 6 10 10 8 5 6 12 11 2 12 9 6 11 13 17 12 16 18 19 18 19 19 18 17 18 16 22 22 22 24 23 24 23 24 23 21 21 21 21 21 22 22 21 21 21 20 20 20 20 19 19 18 18 18 16 14 12 12 12 13 14 14 14 15 14 14 14 13 13 13 13 13 13 13 13 12
7 7 5 8 8 7 5 5 5 7 8 10 13 6 6 5 9 15 17 11 14 8 5 5 9 4 4 6 6 10 9 7 4 6 10 8 13 18 21 19 19 20 20 17 18 18 17 24 21 21 23 24 24 24 24 23 21 21 20 20 21 21 21 21 21 21 21 20 20 19 19 18 18 18 17 16 14 12 11 11 12 13 14 14 13 13 13 12 13 13 13 13 14 14 14 13 12
4 6 6 3 8 8 15 6 5 6 15 10 9 12 7 7 7 14 17 17 15 11 11 7 9 8 8 8 10 8 5 8 6 5 12 8 20 19 20 20 19 19 16 17 18 17 18 26 23 21 21 23 25 24 23 23 21 20 20 20 20 20 20 20 20 21 21 21 20 19 18 18 17 17 17 16 14 13 13 12 11 11 12 13 13 12 11 11 12 12 12 13 14 14 13 12 11
7 9 12 8 7 10 11 10 10 11 17 10 13 16 9 6 10 10 18 23 16 12 13 5 3 3 4 9 7 7 8 6 7 7 9 14 19 17 18 20 19 17 17 17 18 16 18 26 22 20 22 24 24 25 24 23 22 20 21 20 20 20 19 20 19 20 21 20 19 18 17 17 17 17 16 16 15 14 12 11 10 10 10 11 12 11 11 11 12 12 12 12 12 12 11 10 10
2 6 7 5 9 7 6 7 10 12 15 14 9 12 9 6 6 7 12 6 22 23 21 7 4 5 12 5 12 5 14 12 7 15 19 19 19 16 15 18 20 18 17 17 16 15 22 24 22 22 22 24 25 26 25 23 22 21 20 20 19 19 19 19 19 18 19 20 18 17 16 16 16 15 16 15 14 13 12 11 9 9 10 12 12 11 10 10 11 11 11 11 10 10 10 10 9
6 11 3 8 9 12 6 9 14 7 13 7 12 11 9 6 4 6 10 11 12 10 11 8 3 11 10 4 12 6 8 12 14 16 19 21 19 16 16 16 21 20 17 16 15 16 18 23 22 22 22 23 23 24 24 23 22 21 21 20 19 18 18 18 19 18 17 17 17 17 16 15 15 14 13 13 13 12 12 11 9 8 11 11 10 10 9 9 9 9 9 9 9 10 9 9 9
5 5 9 15 10 11 8 10 5 14 19 10 16 12 12 8 5 6 11 13 19 11 20 7 7 13 7 9 8 7 5 8 17 18 14 17 17 14 13 11 14 22 17 16 16 16 17 23 23 21 20 21 22 22 21 20 21 20 20 19 17 17 17 17 16 17 16 16 15 15 15 14 14 13 13 12 12 11 11 11 10 8 8 9 9 8 7 7 8 8 8 8 9 10 10 10 9
14 10 6 12 8 12 15 10 12 11 11 10 10 11 12 7 5 9 8 16 14 13 16 5 11 10 4 6 11 3 5 4 15 19 15 15 14 15 15 12 11 12 19 14 14 15 18 19 24 22 20 20 20 19 18 18 18 17 17 17 16 17 18 16 17 16 16 16 16 15 15 14 14 13 12 11 11 11 10 10 10 10 9 9 8 7 6 6 7 7 7 7 8 8 9 9 9
11 12 9 14 17 18 14 17 10 18 12 7 16 8 6 10 5 7 11 14 13 10 15 6 13 8 6 7 11 3 5 8 8 18 17 15 15 14 15 15 13 12 13 15 13 13 15 17 18 22 22 20 18 18 17 17 17 16 17 17 16 17 17 16 16 16 16 16 15 15 14 14 13 12 11 11 10 10 10 9 8 8 8 7 6 6 5 5 6 6 7 7 7 8 8 8 9
13 7 8 15 18 9 9 12 13 12 12 12 17 18 9 8 10 13 13 15 17 12 25 14 5 8 11 9 7 5 6 8 11 14 16 17 16 15 14 15 14 13 13 13 14 13 14 14 17 16 17 22 18 18 17 18 17 17 16 16 18 17 17 17 16 16 15 14 14 14 13 12 12 11 11 9 10 9 9 8 8 7 7 6 5 4 4 5 6 7 8 8 8 8 7 7 8
16 18 18 23 6 13 15 11 7 14 18 12 12 8 8 10 10 15 9 11 20 15 10 9 11 10 10 8 8 9 10 13 15 13 15 16 15 15 15 14 14 13 12 13 14 13 13 12 13 14 17 15 14 18 18 19 18 17 17 16 18 16 17 16 15 13 13 13 13 12 12 12 11 11 10 9 9 8 7 7 6 6 7 6 6 5 4 4 5 7 8 8 9 9 9 8 8
14 8 14 13 13 10 12 24 15 13 27 10 13 9 10 13 11 10 11 13 28 8 7 4 13 15 18 18 19 18 18 18 16 15 17 16 15 15 14 14 14 13 13 13 12 13 13 12 13 13 12 12 12 11 11 18 20 19 18 18 18 18 17 16 15 14 14 13 13 13 12 12 11 11 10 9 9 8 7 6 6 5 6 6 6 6 6 4 6 8 9 9 9 10 11 11 10
12 10 14 18 20 19 18 18 8 13 28 8 12 10 7 11 8 9 17 16 18 5 7 12 8 13 9 26 13 23 23 19 18 19 20 19 16 13 15 16 17 14 13 14 14 12 12 12 11 13 13 12 11 11 11 12 18 20 19 19 19 18 17 16 15 14 13 13 13 12 11 9 9 7 10 7 9 8 7 6 5 5 5 7 6 6 5 6 7 8 9 10 11 11 11 11 11
5 8 14 19 22 17 14 17 16 30 9 18 3 5 13 19 8 10 7 8 11 6 6 5 13 5 11 15 20 26 22 21 19 20 20 18 18 17 18 16 15 13 12 12 13 14 13 13 13 13 13 13 13 13 11 12 16 19 18 20 20 18 17 16 15 14 12 11 10 10 9 7 6 3 5 3 7 5 7 6 6 6 4 5 5 6 6 7 7 9 9 10 11 12 12 12 12
8 21 24 23 17 20 16 23 24 11 18 15 4 11 11 18 12 13 6 5 6 3 4 7 8 9 6 9 23 25 25 27 24 25 21 21 20 24 22 20 19 22 18 17 12 12 14 13 15 15 15 14 14 13 12 11 13 15 11 13 14 16 15 14 12 9 10 5 10 9 7 7 6 6 3 7 3 3 3 6 5 6 4 4 5 5 6 6 8 9 10 10 11 12 12 9 10
18 16 20 36 20 19 16 18 12 15 13 7 11 10 14 21 9 10 10 9 6 4 5 5 11 11 17 18 20 23 23 20 22 21 25 25 23 25 23 23 18 19 18 16 15 13 12 14 14 14 13 15 14 12 12 11 12 11 11 12 12 12 12 12 9 9 6 6 6 7 7 7 7 5 3 3 5 6 3 6 6 5 5 5 5 5 6 7 8 9 9 10 10 10 8 8 8
17 12 27 30 7 9 13 9 13 10 8 14 15 8 10 9 8 4 10 13 9 8 10 3 10 14 18 19 21 21 20 20 18 21 22 20 20 22 21 21 19 18 17 17 19 13 14 15 14 14 15 15 15 14 12 12 13 12 12 11 11 10 9 10 9 9 8 6 6 7 7 6 5 6 6 8 7 6 6 6 6 6 6 6 6 6 8 8 9 10 9 9 7 7 7 7 7
14 17 29 17 9 12 8 6 11 11 8 10 9 5 7 8 10 9 4 10 13 8 13 20 19 20 19 20 22 21 20 19 17 14 16 15 13 13 16 18 19 18 16 15 14 14 14 14 14 15 14 15 13 14 13 13 13 14 12 12 11 10 10 9 9 9 8 7 7 6 7 5 6 5 3 5 5 5 5 4 5 5 5 6 7 5 5 7 7 7 6 6 5 5 6 7 7
10 30 10 4 4 9 8 12 10 10 6 6 7 7 18 3 5 7 8 12 20 14 13 14 25 26 29 25 22 20 21 20 18 17 18 18 20 16 12 12 11 12 16 19 19 17 15 13 14 15 14 14 13 13 13 15 16 14 13 12 11 10 10 10 9 9 8 7 6 6 7 7 6 4 3 3 5 4 4 4 5 5 5 5 5 6 6 6 7 7 6 7 7 4 5 6 5
29 15 10 7 6 10 7 9 9 9 13 8 9 9 6 7 10 6 6 14 15 10 3 16 25 30 32 30 28 23 22 22 21 21 19 18 17 13 15 14 18 18 17 15 16 17 16 14 14 15 15 14 14 11 12 13 13 13 13 12 12 10 10 12 9 8 7 7 7 7 7 7 6 4 3 4 4 4 3 3 4 5 5 5 5 6 7 6 6 7 7 7 7 6 7 5 5
18 26 2 7 7 12 5 7 11 10 13 18 15 4 8 4 11 7 9 10 15 12 9 18 21 22 24 27 28 31 29 26 23 16 13 13 14 15 16 17 13 13 15 15 17 17 19 18 16 15 16 15 17 14 14 13 11 12 13 14 13 14 13 13 12 8 7 7 7 6 7 7 7 5 4 5 5 2 4 3 3 5 4 4 4 5 7 8 8 7 6 7 7 6 6 6 6
21 25 8 7 5 9 12 11 7 7 10 10 8 9 19 8 11 8 12 13 13 7 10 17 22 23 23 26 23 20 19 14 14 13 10 10 11 12 11 12 14 15 16 17 18 19 19 18 17 17 18 17 16 15 14 13 13 14 13 12 11 13 12 11 12 9 9 7 6 7 6 7 6 5 4 5 2 4 4 5 5 6 5 5 5 6 5 7 7 7 7 8 7 7 7 8 7
16 13 7 10 12 4 7 8 14 12 9 5 8 16 17 9 5 14 18 19 6 5 12 19 23 24 25 25 25 24 21 18 15 16 17 14 14 16 14 16 17 18 20 20 21 21 19 22 20 19 20 19 16 16 14 14 15 16 14 11 13 11 10 10 10 10 9 9 7 7 6 7 7 6 6 3 6 6 5 5 5 5 5 5 5 6 6 6 7 7 7 7 8 7 7 7 6
5 9 18 16 14 12 7 10 8 8 10 6 13 14 20 6 13 25 5 11 6 11 14 15 22 24 21 20 17 15 21 23 24 18 15 14 15 18 17 16 17 18 18 19 19 20 20 22 23 18 18 17 13 17 15 14 14 14 13 11 12 11 9 10 9 8 8 8 8 6 6 6 6 6 6 5 5 5 4 4 5 4 4 5 4 5 4 6 6 7 6 7 7 7 8 7 6
11 6 4 14 18 17 10 9 10 4 16 8 9 16 14 9 11 24 10 7 11 18 14 18 18 20 20 19 19 16 17 17 18 20 23 22 25 22 20 21 18 19 22 20 20 18 20 21 21 17 18 19 17 16 17 14 16 14 13 12 11 11 9 9 8 8 8 8 6 6 6 7 7 8 7 6 6 6 6 6 5 4 5 5 5 5 5 5 6 6 5 5 6 5 7 7 6
8 8 16 6 8 27 19 25 12 7 17 5 9 6 17 13 12 11 16 7 9 15 19 20 18 18 19 20 18 18 19 17 17 20 23 19 13 16 19 17 22 22 18 20 20 21 21 20 19 17 17 16 16 16 17 15 15 14 13 11 11 10 9 8 8 9 9 8 6 6 7 8 8 9 8 9 9 7 7 6 4 4 5 4 5 5 5 5 3 2 3 4 6 5 6 7 6
6 5 9 9 12 16 14 12 16 10 15 5 10 25 24 20 13 11 11 11 8 12 15 16 17 22 21 20 21 18 15 15 18 21 18 16 16 16 19 17 16 18 19 18 21 21 19 17 18 18 18 19 18 17 15 14 13 12 11 11 10 10 9 9 9 8 8 8 6 6 7 7 7 6 9 6 7 7 6 5 5 5 3 4 4 5 6 4 5 6 5 5 5 4 5 6 6
17 9 9 17 7 24 9 18 9 18 15 8 11 24 19 16 11 13 10 13 21 17 17 18 19 20 22 21 21 23 21 22 24 19 16 13 13 14 16 15 15 16 17 17 22 21 19 20 20 19 20 20 18 15 16 16 13 13 12 11 10 10 9 9 8 8 8 7 7 7 6 6 5 7 6 9 8 7 6 5 4 4 4 4 5 5 5 5 5 6 5 7 6 4 5 5 5
8 18 24 8 20 9 8 10 16 24 12 13 11 23 21 19 18 13 9 12 18 21 18 20 21 21 23 21 21 21 21 15 12 14 13 13 14 16 18 18 17 18 19 21 20 22 23 21 19 18 19 18 17 18 17 16 15 13 12 12 11 9 9 9 9 10 7 7 8 7 6 7 8 7 6 7 8 7 6 7 4 5 4 4 5 6 5 6 5 6 4 3 4 6 7 7 6
10 19 5 18 8 11 7 9 11 17 16 6 24 19 5 18 17 13 6 13 14 17 19 20 22 22 23 22 21 19 15 13 12 14 14 15 13 14 15 17 19 19 17 19 20 20 21 21 18 18 19 19 19 18 17 13 14 13 13 13 11 10 10 10 9 6 8 8 7 7 7 8 8 7 7 7 8 6 6 6 4 6 5 4 5 5 6 6 5 6 5 6 4 6 7 7 8
16 8 15 6 14 7 19 6 6 12 18 16 13 28 11 12 10 14 8 16 13 12 18 20 24 22 23 22 21 20 20 21 23 22 20 16 13 12 14 15 16 17 17 20 21 23 24 18 19 20 18 16 18 19 17 15 14 13 12 12 11 11 10 8 8 8 9 8 8 8 8 9 9 7 7 7 8 7 6 5 4 4 6 4 4 4 6 5 5 4 4 4 4 3 5 6 8
14 9 10 12 4 11 13 20 8 12 12 17 10 15 16 20 18 13 8 9 18 19 25 21 23 21 21 21 21 21 22 24 27 24 17 13 13 12 14 15 16 17 18 21 21 21 18 18 19 22 18 15 14 14 13 13 12 10 10 11 9 8 6 6 8 8 7 8 7 8 8 8 8 7 7 7 8 7 6 5 5 4 4 5 5 5 5 5 5 5 3 3 4 5 4 5 7
10 11 12 9 13 9 16 13 7 18 9 14 12 19 14 19 24 17 7 8 14 18 21 21 21 22 22 23 23 23 24 27 22 13 12 11 11 13 14 15 16 16 18 20 21 18 16 17 15 14 10 13 13 12 13 13 12 14 13 8 9 8 8 8 5 7 8 9 8 9 8 8 7 7 7 6 7 7 7 6 5 5 5 5 4 5 5 4 4 1 2 3 6 5 5 7 7
14 8 8 12 8 8 6 5 7 8 11 14 14 9 14 19 24 16 12 6 8 14 21 21 19 21 21 21 23 27 25 24 10 13 13 13 13 13 14 16 16 14 15 17 18 15 18 24 21 20 13 12 15 16 15 17 16 13 9 13 11 8 10 8 8 8 9 9 9 9 8 9 8 8 6 7 8 7 7 6 6 5 5 6 7 6 4 5 3 3 5 6 6 6 7 10 9
9 9 9 9 9 12 7 8 6 5 13 5 11 13 15 19 21 20 8 9 11 19 23 25 22 22 22 23 25 25 19 9 13 13 13 13 13 14 14 15 16 18 14 16 19 18 20 17 19 15 11 13 15 15 16 16 15 18 17 13 10 10 10 11 10 11 9 10 10 11 10 9 9 8 7 6 7 8 7 7 6 6 6 6 6 6 5 6 6 6 4 4 7 5 6 9 11
9 9 7 7 8 7 10 9 6 4 7 13 3 15 17 19 20 18 11 15 13 20 28 31 28 22 21 21 23 19 13 12 13 14 13 15 15 14 14 13 14 15 15 17 12 20 24 18 18 14 14 12 11 13 15 14 8 9 12 12 14 12 8 9 10 11 11 12 11 9 9 9 9 8 6 6 8 7 7 7 5 5 5 4 9 9 7 9 8 8 7 4 3 7 6 7 11
12 6 8 10 7 11 12 10 4 3 14 7 11 12 13 13 14 12 6 11 6 10 13 20 29 29 25 27 26 24 21 19 20 22 21 18 16 17 14 14 18 17 16 16 18 22 16 18 15 14 14 12 11 9 9 8 11 12 12 13 11 10 11 13 11 10 11 11 11 9 8 8 7 7 7 7 7 7 7 7 7 8 8 7 9 10 9 9 9 9 8 7 4 4 8 8 9
8 9 8 9 7 7 11 12 8 4 4 5 6 5 12 8 11 15 4 3 6 10 8 6 12 18 26 21 13 17 23 25 23 17 18 19 21 19 18 17 19 18 19 19 17 21 20 19 20 20 22 19 11 9 10 13 16 16 17 15 14 16 12 10 11 9 9 11 12 9 8 7 7 8 6 6 7 8 9 9 10 9 9 8 8 10 10 8 7 7 7 8 7 6 5 6 7
15 8 10 9 5 7 9 7 6 8 12 9 9 13 21 10 11 15 5 6 8 8 15 15 20 21 15 16 23 19 15 14 19 20 19 18 17 15 16 20 19 17 21 19 19 24 22 21 22 23 22 20 18 13 14 14 15 19 17 17 13 10 11 11 11 13 10 11 11 10 9 8 8 9 8 9 11 11 11 10 9 10 10 9 10 10 9 9 10 10 9 7 8 6 8 9 8
16 19 12 8 7 5 5 7 3 6 17 10 4 20 23 11 11 9 9 9 14 8 15 16 16 17 16 18 18 19 20 18 14 14 17 17 17 17 18 21 20 20 18 17 17 18 18 21 21 19 16 14 14 15 13 14 13 12 14 14 15 16 15 6 6 8 11 10 12 11 10 10 10 11 10 11 11 11 10 10 10 10 9 9 8 9 11 10 9 10 8 10 9 6 7 10 8
23 8 17 11 7 7 6 3 6 8 6 11 3 13 18 19 17 6 8 12 12 10 12 9 12 13 18 19 17 15 18 16 17 18 19 17 18 22 23 20 20 21 17 17 17 15 18 18 14 14 12 12 12 14 13 13 15 11 11 11 12 13 14 13 11 12 11 13 13 13 12 11 11 11 12 11 10 9 10 11 10 11 11 9 9 10 10 8 9 9 9 9 10 11 10 11 9
12 9 17 15 13 14 6 5 3 6 3 17 8 2 15 18 16 5 4 8 7 12 13 16 16 19 21 17 12 12 14 16 18 21 22 22 24 26 22 21 17 17 17 19 19 18 15 14 12 11 12 12 12 13 15 12 13 13 13 14 11 7 10 13 13 13 13 13 15 11 13 12 12 10 10 10 9 9 10 10 11 11 11 9 9 10 9 9 10 10 10 12 12 12 12 10 13
6 15 14 12 11 9 8 8 7 8 9 19 13 8 18 17 11 7 4 7 13 16 18 21 22 24 20 14 12 14 14 15 17 20 20 20 21 19 16 14 16 17 17 17 17 16 16 15 14 13 12 12 12 13 13 11 10 12 13 12 14 12 12 12 13 15 13 13 15 12 12 12 11 11 10 9 11 10 11 11 12 11 10 9 10 9 9 10 10 12 11 11 11 13 12 12 13
6 13 12 7 5 5 5 8 12 6 19 23 9 7 9 18 14 15 19 21 19 18 13 15 13 9 12 15 18 20 19 19 19 20 20 17 15 16 17 18 17 15 15 17 18 19 19 20 18 16 14 13 12 12 12 12 11 11 14 13 16 17 14 16 15 15 15 13 16 12 12 10 10 10 10 10 10 10 11 11 12 11 10 10 10 9 10 10 10 12 12 12 13 13 11 11 14
16 18 15 14 9 4 6 6 4 19 23 8 10 12 10 19 15 11 18 9 15 24 23 24 22 21 19 18 20 19 19 19 21 22 21 19 18 18 18 18 19 18 16 18 17 17 19 19 20 19 16 16 15 14 13 13 12 11 11 13 16 17 17 16 17 17 15 18 13 14 11 13 10 10 9 10 11 10 11 12 11 11 11 10 10 9 9 10 10 11 12 13 12 12 11 11 11
13 11 13 23 17 19 20 14 24 24 20 7 8 11 8 19 19 16 17 26 18 18 25 29 28 23 19 19 21 21 20 21 22 22 20 19 20 20 21 19 19 19 21 20 19 18 17 16 21 25 23 18 17 16 15 13 12 12 14 14 13 15 15 15 16 17 16 17 16 15 14 14 10 12 9 12 9 9 10 13 11 11 11 10 9 10 9 10 11 12 13 13 13 12 11 12 13
15 23 25 25 23 26 26 17 14 9 11 10 7 5 18 9 16 20 21 24 28 26 26 16 20 22 26 24 24 20 22 22 20 20 20 23 23 22 23 21 19 19 18 21 18 15 15 13 13 13 12 13 14 14 13 13 12 13 13 14 15 16 14 14 14 18 15 15 15 15 14 13 12 11 12 12 10 12 13 12 12 12 10 9 9 10 10 9 11 13 12 13 12 11 12 13 14
23 7 16 17 17 27 22 19 26 17 13 11 3 12 19 10 20 9 26 25 24 13 10 11 16 18 17 19 20 20 20 20 19 20 25 24 24 23 22 20 17 18 17 18 16 15 13 13 13 11 10 11 12 12 11 12 12 13 13 13 14 13 15 14 13 15 17 17 13 15 13 11 14 11 13 11 11 14 13 13 12 12 10 9 9 10 10 10 10 12 12 12 12 13 15 16 15
16 13 11 12 28 13 13 15 14 11 11 12 11 22 13 18 8 10 7 7 10 12 11 16 17 20 24 23 26 25 23 22 22 23 24 22 22 19 18 17 17 17 16 16 15 16 15 14 13 11 12 13 14 13 11 12 12 13 13 14 14 14 14 14 14 13 13 13 14 15 14 12 12 13 12 13 11 13 14 14 12 12 10 10 9 9 10 11 11 13 13 14 15 14 16 15 12
23 18 29 18 9 10 10 4 3 4 8 24 9 10 11 15 10 7 7 12 8 14 14 17 19 22 23 24 22 22 21 23 24 26 25 24 19 18 18 18 18 17 16 16 15 15 15 16 15 13 14 13 14 14 13 12 13 13 12 13 14 14 15 16 17 16 16 13 14 14 15 13 13 13 13 12 13 12 13 13 13 11 11 9 9 9 10 10 11 12 13 15 17 15 15 13 13
23 32 15 5 4 9 13 12 5 8 15 21 7 12 5 8 22 10 7 9 6 11 14 18 20 23 25 21 21 22 22 22 23 24 21 22 18 18 17 16 16 14 14 14 13 13 14 15 14 16 16 15 15 15 14 14 14 14 14 14 13 13 16 16 17 18 16 17 15 15 15 15 13 13 14 13 13 14 13 12 12 11 10 10 9 10 11 11 13 14 14 18 15 14 14 14 15
24 20 9 26 19 17 10 11 8 8 13 13 5 3 9 15 18 6 6 13 12 12 16 22 24 26 25 21 21 19 19 20 23 24 24 22 21 20 18 16 12 12 12 13 16 14 13 11 13 15 15 15 15 14 13 13 15 14 14 15 17 17 15 17 16 16 16 18 17 16 15 15 14 13 14 14 14 13 13 12 11 11 11 11 11 11 12 13 14 16 15 16 14 14 14 15 14
5 16 22 11 13 9 15 26 11 14 8 7 10 4 19 18 17 12 16 20 19 19 21 22 27 28 27 27 28 28 26 24 24 24 23 22 19 17 16 16 16 15 14 14 17 14 14 16 17 14 15 16 15 15 14 15 13 16 18 17 16 17 16 16 16 18 17 17 16 17 16 15 14 13 13 13 12 12 11 12 11 12 12 11 12 12 13 14 15 14 13 14 12 14 15 15 13
17 22 23 19 16 7 14 9 12 8 12 11 11 9 14 16 16 11 13 16 22 28 27 22 26 25 23 26 29 29 27 25 24 23 24 21 17 15 13 12 14 13 13 14 17 14 15 16 17 17 18 17 18 18 17 15 18 17 20 19 18 19 17 16 16 16 18 16 16 15 15 14 14 13 11 13 12 11 12 12 12 11 12 12 12 13 12 13 14 14 14 13 13 15 15 12 12
17 16 16 17 16 10 19 18 10 10 8 12 12 13 16 19 5 9 10 13 19 22 25 26 24 24 24 25 24 28 27 20 22 23 21 19 16 15 14 14 14 15 16 16 19 17 15 17 17 17 18 17 19 16 17 17 17 18 18 20 18 17 18 17 17 17 17 17 15 16 15 14 15 11 11 13 12 11 11 13 13 12 13 13 13 12 11 12 14 14 13 12 13 14 14 12 12
Wind_Speed
9 8 7 4 1 2 2 7 1 3 2 1 0 2 1 1 1 3 4 7 6 3 4 2 3 6 5 2 5 4 4 4 7 7 6 2 2 6 4 6 11 12 12 11 11 12 14 16 18 20 19 19 20 20 19 18 16 16 16 15 16 15 15 16 15 16 16 16 16 16 16 16 15 15 14 13 13 12 12 13 14 13 13 13 13 12 12 12 11 10 10 10 10 11 11 11 11
7 7 6 1 1 2 1 1 4 4 5 3 1 0 2 2 3 0 3 2 1 3 8 4 4 4 9 3 2 1 4 8 5 1 1 3 3 3 6 9 13 14 11 11 11 10 11 14 18 19 19 19 19 20 19 18 16 16 16 16 14 14 15 15 15 15 15 15 16 16 16 16 16 14 14 13 12 11 10 12 13 12 12 12 13 12 11 11 10 9 9 9 9 10 10 10 10
7 7 6 4 3 4 1 4 3 1 2 3 2 5 1 2 2 3 2 2 2 6 5 4 0 2 3 2 3 1 7 0 3 2 1 1 6 3 5 10 11 12 12 10 10 10 9 13 17 18 19 19 19 20 19 18 17 16 16 15 14 15 14 14 15 15 15 15 16 16 16 16 15 15 14 13 12 10 10 11 12 11 11 12 12 11 11 11 10 9 9 9 9 9 9 9 9
5 0 1 3 2 4 1 3 4 5 1 4 1 5 2 1 6 4 3 4 3 4 4 4 1 0 1 4 4 1 5 3 2 5 1 4 2 4 7 10 11 10 11 9 9 10 9 14 18 18 19 19 19 19 19 19 17 16 16 15 15 14 15 14 14 14 15 15 14 15 15 15 15 15 15 13 12 10 10 10 11 11 11 11 12 11 10 10 10 10 9 9 9 9 9 9 8
4 3 2 3 2 2 1 1 2 3 3 3 1 2 3 3 6 8 3 4 3 4 2 1 2 1 0 2 1 1 1 1 2 0 2 1 4 7 8 10 10 10 11 10 10 10 10 19 17 17 19 19 20 20 19 18 17 16 15 15 14 15 15 15 14 14 14 14 14 14 14 14 14 14 13 13 11 10 9 9 10 10 11 11 11 10 10 9 10 9 9 9 9 9 9 8 7
1 2 2 1 1 2 6 1 0 3 7 4 1 3 4 4 4 7 6 3 7 5 4 0 1 3 1 1 3 1 1 2 2 1 4 5 8 8 8 9 9 9 8 9 9 8 9 20 17 17 17 19 20 20 19 18 17 16 15 15 15 14 14 14 14 14 14 14 13 13 13 13 13 13 14 13 12 11 10 9 9 9 10 10 10 9 9 9 9 9 9 9 9 9 9 8 7
1 4 4 4 2 3 4 4 6 6 8 6 3 3 5 4 6 6 7 5 3 2 1 0 0 1 1 1 1 3 2 2 2 2 4 8 10 8 7 6 7 8 8 7 7 6 9 17 15 15 16 18 20 20 20 19 18 16 16 16 15 14 14 14 14 14 14 13 13 12 12 12 12 13 13 13 12 11 10 8 8 8 8 9 9 8 8 8 9 9 9 9 8 8 7 7 6
1 1 1 1 1 2 0 3 6 6 5 7 4 3 4 3 4 3 4 3 2 2 1 2 1 1 6 3 2 1 5 3 1 6 10 10 11 9 7 5 6 7 8 7 7 6 12 14 13 13 15 17 18 20 20 19 17 17 16 16 15 14 14 14 14 13 12 13 12 12 11 11 12 12 12 12 11 10 9 8 7 7 8 10 9 8 7 8 8 8 8 8 8 7 7 6 6
3 5 0 3 3 3 2 5 6 2 3 2 7 4 3 4 3 2 6 3 4 1 4 1 2 1 3 0 4 1 2 4 5 8 10 11 12 11 7 5 6 7 8 8 7 5 8 14 12 13 14 16 17 18 19 18 17 17 17 16 15 14 13 14 14 13 12 11 11 11 11 10 10 11 10 10 10 9 9 8 7 6 9 9 8 8 7 7 7 7 7 7 7 7 6 6 6
2 1 3 2 4 5 3 4 1 6 7 6 7 5 4 3 2 2 5 9 7 4 2 5 3 4 1 4 3 2 0 2 6 9 7 9 9 10 9 7 6 9 9 8 7 5 6 15 13 12 12 14 15 15 16 16 16 16 16 15 13 13 13 13 12 11 11 11 10 10 10 10 9 10 10 9 9 9 9 8 7 6 6 7 7 6 6 6 6 6 6 6 6 6 6 6 6
2 4 2 2 2 4 7 6 6 5 5 1 4 6 6 3 3 2 2 7 5 4 3 3 1 5 2 2 4 1 2 2 7 9 7 9 9 10 10 8 8 8 10 10 7 7 8 8 16 12 12 13 14 13 13 14 15 14 13 13 13 12 13 12 12 11 11 11 11 10 10 9 9 9 9 9 9 8 8 8 7 7 7 7 6 5 4 4 5 5 5 5 5 5 6 6 6
1 3 1 6 7 8 6 7 5 9 7 1 3 4 3 6 2 1 6 6 4 4 6 4 1 2 2 0 4 2 3 3 4 8 8 8 9 9 9 8 9 8 9 9 8 8 8 9 9 14 14 14 13 13 12 13 13 13 14 14 13 13 13 13 12 11 11 11 11 10 9 9 9 8 8 8 8 7 7 7 6 6 6 5 4 4 3 4 4 5 5 5 5 6 5 5 5
3 2 4 3 5 4 4 6 7 7 5 4 6 3 4 6 6 9 7 7 5 4 11 7 2 2 3 3 1 1 3 3 5 7 8 8 8 9 8 8 9 9 9 9 9 8 8 8 8 9 11 17 14 14 13 13 13 14 13 13 15 14 14 13 13 12 11 11 10 10 9 8 8 8 8 7 7 6 6 6 6 5 4 4 3 2 2 3 4 5 6 6 6 6 6 5 5
3 6 8 7 1 6 7 5 4 7 8 5 4 1 4 4 6 10 3 3 8 5 3 3 2 4 5 2 2 4 4 6 7 7 7 7 7 8 10 8 9 9 8 9 9 8 8 8 8 8 9 9 8 12 14 15 14 14 14 14 15 14 14 13 12 11 11 11 10 10 9 9 8 7 7 6 6 5 5 5 5 4 4 3 2 1 1 2 3 5 6 6 7 7 7 6 6
4 2 2 1 3 4 4 7 9 7 12 4 4 5 4 5 2 3 8 5 12 4 0 1 4 4 5 4 8 6 8 10 9 8 9 8 8 9 10 9 9 9 8 9 8 8 8 8 8 7 8 7 7 6 6 11 15 15 15 15 15 15 14 13 12 11 11 11 10 10 9 9 7 7 7 7 7 6 5 4 4 2 2 3 1 1 1 2 3 5 6 7 7 8 8 8 8
3 4 1 4 6 9 4 7 5 7 9 4 6 6 3 3 2 3 5 8 3 2 1 2 1 3 2 6 3 8 13 11 9 10 10 11 9 9 9 10 10 8 8 9 9 7 8 8 7 7 8 7 7 6 7 8 13 16 15 15 15 15 14 13 12 11 10 10 10 9 9 6 6 4 7 5 6 6 5 4 3 3 2 2 2 1 1 2 3 5 6 7 8 8 8 8 8
2 1 3 4 9 8 4 6 9 9 2 9 1 3 4 3 3 4 1 4 2 3 2 0 3 3 2 3 5 14 13 12 11 11 12 10 10 11 8 8 8 7 6 8 8 8 8 8 9 7 8 8 8 8 7 7 10 15 14 16 16 15 14 13 12 12 10 8 7 8 7 4 4 2 4 2 5 3 5 4 4 3 2 2 2 1 0 1 3 4 6 7 8 8 8 8 7
2 4 6 11 6 9 7 9 10 5 7 9 2 6 6 7 2 2 2 2 1 2 1 4 3 5 2 2 10 13 12 14 13 14 11 12 10 11 10 9 8 10 8 7 7 8 8 8 9 8 8 9 9 7 6 6 7 10 8 8 9 11 11 11 9 6 7 3 8 6 4 4 3 3 2 4 2 2 2 4 3 4 2 2 2 2 1 1 2 4 5 6 7 7 8 5 5
6 2 5 16 7 5 10 6 8 7 7 3 6 5 9 10 5 1 1 1 1 1 1 2 1 3 7 7 10 12 13 11 12 11 15 15 12 16 12 10 8 9 8 7 6 7 6 7 8 9 9 9 9 8 6 6 7 6 7 7 7 9 8 8 6 6 4 4 4 4 4 4 3 2 2 2 2 3 1 1 2 2 2 2 1 1 1 2 2 3 4 5 5 6 4 4 4
5 4 10 11 2 4 6 4 7 3 4 7 10 3 6 3 2 0 3 3 1 3 3 2 2 5 3 8 9 12 12 12 11 12 12 10 8 10 11 12 11 10 9 8 7 5 7 7 9 8 9 10 9 7 6 6 7 6 6 6 6 6 6 6 6 6 5 4 4 4 4 4 3 3 2 1 3 3 2 3 3 2 3 2 2 3 2 1 2 3 4 4 3 2 3 4 4
2 4 8 3 4 2 3 1 5 7 5 5 6 0 1 3 5 3 3 1 1 3 6 8 10 10 10 11 11 12 12 11 10 9 9 9 6 5 6 7 9 9 8 8 7 7 8 8 8 8 8 8 8 7 6 6 6 6 6 6 5 5 5 5 5 5 5 5 4 4 4 3 3 2 1 1 2 2 2 1 2 2 2 2 3 2 1 1 1 1 2 2 2 3 4 4 4
2 11 4 1 1 3 3 6 7 6 2 3 1 1 6 1 0 2 3 5 5 3 5 9 10 9 14 16 15 11 13 13 12 12 11 10 10 9 8 8 7 7 9 9 10 9 9 8 8 8 8 7 7 6 6 7 7 6 6 6 5 4 5 5 5 5 5 4 4 4 4 4 3 2 1 1 1 1 2 1 1 2 2 2 2 1 1 1 1 1 2 3 2 2 3 3 3
9 2 4 1 2 2 1 3 3 4 3 4 2 5 0 2 3 1 4 6 4 3 2 4 8 13 14 13 16 15 15 15 14 14 12 11 10 9 10 8 10 10 9 8 9 9 9 8 8 9 9 8 9 7 6 6 6 5 5 5 6 5 5 6 5 4 4 4 4 4 4 4 3 2 1 1 1 2 2 2 1 1 1 1 2 2 3 3 3 3 3 4 3 3 3 2 3
6 8 1 3 4 5 3 1 5 5 6 6 3 3 2 1 6 1 3 4 4 1 4 5 4 7 11 14 14 18 20 17 12 8 8 8 8 9 9 10 7 7 8 8 9 9 10 10 10 10 9 9 10 8 7 7 6 6 6 8 6 7 7 6 6 4 4 4 4 4 4 4 4 2 1 1 2 1 2 1 1 1 1 1 2 2 3 3 3 3 3 4 4 3 3 3 2
10 9 3 3 0 3 7 5 4 3 4 4 6 4 8 3 4 4 7 4 1 2 2 3 7 8 8 11 14 11 9 8 10 9 6 6 7 8 7 7 8 9 10 10 10 11 12 11 11 11 11 10 9 8 8 7 7 7 7 6 6 8 6 6 6 5 5 4 4 4 4 4 3 3 2 2 1 1 1 2 2 2 2 2 1 2 2 3 3 3 3 3 3 4 4 4 4
5 6 1 2 5 2 3 4 7 6 4 2 3 7 7 6 3 7 12 5 5 3 5 8 8 9 10 11 10 11 13 12 10 10 10 9 9 11 9 10 10 11 12 12 12 12 11 13 13 12 12 10 9 8 7 7 8 8 8 6 7 6 5 6 7 6 5 5 4 4 4 4 4 4 4 3 3 2 1 1 1 2 2 1 1 2 3 2 3 4 4 4 4 4 4 4 3
2 6 9 7 6 5 3 4 3 3 3 2 5 6 7 4 6 10 0 3 2 5 6 7 11 11 8 6 8 8 11 14 13 9 10 9 10 11 11 10 11 11 10 11 11 10 11 14 14 10 11 11 8 9 7 7 7 7 7 5 6 5 5 6 5 4 4 4 4 4 4 4 4 4 4 3 2 2 2 1 2 1 1 1 1 2 2 3 3 3 3 4 4 4 4 4 3
1 3 1 3 6 9 5 4 6 1 4 5 5 7 8 6 3 12 4 1 6 8 7 8 8 8 9 9 8 8 7 5 7 10 14 15 12 12 12 12 11 10 12 13 11 10 10 13 13 9 11 11 8 9 7 6 7 6 6 5 6 5 5 5 5 4 4 4 3 4 4 4 3 3 3 3 3 3 2 2 2 1 1 1 1 2 2 2 3 3 3 2 3 3 4 3 3
3 3 4 1 2 4 6 11 6 4 5 2 6 2 9 5 6 7 6 3 5 8 10 10 9 9 9 9 8 8 9 7 7 9 9 6 7 8 12 10 13 13 10 12 12 12 12 12 11 10 10 11 9 10 9 5 6 6 6 5 5 5 5 4 4 5 5 4 3 4 4 4 3 4 4 4 4 4 3 2 1 1 1 1 1 1 2 1 0 0 1 2 2 2 3 4 3
4 2 2 4 3 5 7 4 7 6 3 4 5 9 12 11 9 7 4 5 4 5 9 10 9 9 9 10 10 8 7 8 9 8 7 7 9 10 11 11 11 10 10 8 9 12 10 8 8 9 10 10 11 9 8 6 7 6 6 5 5 6 5 5 5 5 4 4 4 4 3 3 4 3 4 4 4 3 3 2 1 1 1 1 1 0 1 0 1 3 3 2 2 2 3 4 3
7 3 2 6 3 5 6 7 6 9 5 6 5 10 9 9 8 8 5 6 10 8 9 12 10 11 10 10 10 11 11 12 10 7 7 7 8 9 10 10 10 9 8 9 12 12 10 9 8 8 11 10 10 9 10 9 8 7 7 6 5 6 5 5 4 4 4 4 4 4 3 3 3 5 4 5 5 4 3 2 1 1 1 1 2 1 1 1 2 2 2 3 3 2 3 3 2
1 6 10 2 9 3 3 4 11 9 2 9 6 10 10 12 12 6 5 5 8 9 11 14 13 12 12 10 11 10 11 7 5 7 7 7 9 10 11 12 11 11 11 11 11 10 10 9 9 10 11 11 11 10 8 8 8 7 7 7 6 6 5 5 4 4 4 4 3 3 4 4 4 4 4 5 5 4 3 4 2 1 1 1 1 1 2 2 2 3 1 1 2 4 4 5 3
2 8 1 8 5 4 0 4 7 12 5 4 15 7 2 9 11 8 4 7 9 8 12 13 15 15 14 12 11 10 7 6 6 7 7 8 8 9 9 11 12 12 10 10 11 10 10 10 10 10 11 11 9 7 5 5 6 6 6 7 7 6 6 5 5 4 4 4 4 4 4 4 5 4 4 4 4 3 3 4 2 1 1 1 0 1 2 1 2 3 3 2 2 2 4 5 5
5 1 3 2 8 4 6 2 3 8 10 4 8 11 6 7 6 5 3 10 9 7 10 13 15 12 14 12 11 9 10 9 11 11 10 9 7 8 9 9 9 9 8 9 10 12 12 11 10 9 7 6 6 6 7 6 6 5 4 4 5 6 5 5 5 5 4 4 4 4 4 5 5 4 4 4 4 4 3 3 1 1 0 0 1 2 3 2 2 1 2 1 1 0 3 4 5
6 4 4 2 1 7 7 7 4 7 8 10 7 10 10 13 12 9 3 4 9 12 12 13 14 13 12 11 10 11 11 11 14 10 8 8 7 7 8 8 7 7 6 7 7 7 7 7 6 7 7 5 4 6 6 5 5 3 2 2 3 4 3 3 5 5 4 5 4 5 5 5 5 4 3 3 4 4 4 3 2 2 2 1 2 3 3 2 2 2 1 2 1 2 2 3 4
6 7 6 3 6 3 8 6 3 13 5 9 8 9 9 12 16 11 3 5 8 10 12 12 13 12 12 12 11 11 11 14 3 7 8 6 6 8 7 6 5 4 4 5 5 2 3 5 4 5 4 4 3 3 4 4 5 5 5 3 4 3 3 4 3 4 5 5 5 5 5 5 4 4 3 3 4 3 3 3 3 3 3 2 2 2 3 2 1 0 2 2 4 3 3 4 4
9 5 5 7 3 1 2 2 3 6 5 9 8 6 9 12 16 10 6 3 2 2 8 11 11 11 11 11 12 14 14 8 4 8 8 8 8 7 6 6 5 5 3 3 4 6 6 3 1 2 4 3 4 3 3 4 5 5 2 3 4 3 5 4 5 4 5 5 6 6 5 5 5 4 3 3 3 4 3 3 3 3 3 3 4 3 2 3 1 0 2 3 4 4 5 5 5
6 6 6 4 6 6 3 4 2 1 5 3 7 8 10 12 13 11 3 6 5 10 11 12 14 14 13 15 15 15 11 5 7 7 8 8 7 8 7 7 8 8 6 7 9 9 10 9 5 6 2 1 3 3 2 3 2 1 1 3 4 4 5 6 5 6 6 6 6 6 6 5 5 4 4 3 4 4 4 3 3 2 3 4 4 4 4 4 4 3 2 3 4 3 3 5 6
1 5 4 4 2 2 4 4 2 2 4 7 2 10 10 12 13 10 7 8 6 12 16 16 15 14 12 12 14 12 8 8 8 8 8 8 10 10 8 8 8 10 10 10 8 11 10 9 11 9 2 1 1 4 5 4 2 1 2 2 5 5 4 4 6 6 6 7 7 6 6 5 5 4 3 4 4 4 4 3 2 2 3 3 5 5 4 6 5 4 4 2 2 3 3 4 6
4 2 4 5 3 5 4 5 2 1 5 3 7 7 8 8 8 7 2 6 2 6 8 13 17 17 15 15 16 14 13 10 13 13 14 11 11 10 9 9 11 10 8 7 8 10 9 8 7 9 8 4 3 3 4 3 4 5 6 6 5 4 5 7 6 6 6 7 7 5 4 4 4 4 3 4 4 4 4 4 4 5 5 4 5 6 5 5 5 5 4 3 2 2 3 5 5
4 4 3 3 2 3 5 5 2 2 2 3 4 1 5 4 5 6 1 1 3 6 4 1 6 9 13 11 8 10 14 14 13 11 10 10 13 12 11 11 11 10 9 9 9 10 8 11 11 12 13 11 7 6 6 6 7 7 8 7 7 8 6 5 6 4 5 6 6 5 4 4 4 4 4 4 4 5 5 6 6 5 6 5 5 6 5 5 5 4 4 4 4 4 3 2 4
6 4 7 5 3 2 3 1 1 1 5 4 5 2 5 4 7 10 1 2 4 3 10 9 10 11 10 9 12 11 10 9 12 13 11 11 12 10 8 12 11 10 10 9 8 8 9 9 9 10 7 10 10 9 9 8 8 9 8 8 7 5 6 6 6 7 6 6 5 5 5 5 5 5 5 5 5 6 6 6 6 6 6 5 5 5 5 5 6 6 5 4 4 4 4 4 3
8 7 8 6 5 3 1 1 2 1 6 3 1 9 4 3 5 5 4 4 8 3 8 10 10 11 10 11 10 10 12 11 9 8 10 12 11 12 11 11 11 10 9 8 7 7 8 9 10 8 5 5 8 9 9 8 8 7 8 8 8 9 9 3 2 4 6 6 6 7 6 6 6 7 6 6 6 6 6 6 6 6 6 5 4 5 6 6 5 5 4 5 5 3 3 4 4
6 4 11 5 4 3 3 1 2 2 2 4 0 4 5 4 5 2 3 5 4 3 4 5 6 9 12 13 11 10 10 10 10 11 12 12 13 15 13 11 11 10 10 9 9 7 9 10 9 9 7 6 6 9 8 8 9 7 6 5 6 7 8 7 7 7 7 7 8 7 7 6 7 6 6 6 5 5 6 6 6 6 6 5 4 5 5 4 5 5 5 6 5 5 5 6 5
3 6 11 9 5 6 2 2 1 1 2 7 3 0 2 4 5 2 2 3 3 6 6 8 10 12 14 11 8 8 9 10 11 11 14 15 16 15 11 11 11 11 11 11 11 9 7 7 7 5 7 7 6 9 9 8 8 8 7 6 6 4 5 7 7 7 7 7 9 6 7 6 6 6 5 6 6 6 5 6 7 7 7 5 5 5 5 5 6 6 6 6 6 7 6 6 6
3 10 9 7 5 2 3 1 1 3 1 6 5 1 3 6 5 2 2 0 4 6 9 12 13 14 11 9 8 9 9 9 11 13 13 13 12 10 10 9 11 10 10 9 8 6 6 7 8 8 8 7 7 8 8 7 7 7 7 7 8 7 7 7 8 10 8 7 9 7 6 6 5 5 5 5 6 6 7 6 7 7 7 5 5 5 5 6 6 7 7 7 6 8 7 6 7
4 8 7 3 2 2 1 1 1 1 6 8 4 3 3 4 5 7 7 7 8 8 5 6 3 4 7 9 12 11 11 11 10 12 13 11 9 10 11 12 11 10 9 9 8 8 8 8 8 9 9 7 8 8 8 8 7 7 8 9 11 11 9 9 10 10 8 8 9 6 6 5 5 5 5 5 6 6 7 6 7 6 6 5 5 5 6 5 6 6 6 8 8 8 7 7 8
11 4 6 8 1 2 1 1 1 4 6 2 7 7 5 6 3 5 7 4 6 11 10 11 11 12 12 11 11 11 10 10 10 11 10 10 11 12 12 12 12 11 10 10 9 8 8 9 9 9 8 9 8 8 8 8 7 6 6 8 9 10 10 8 10 10 9 11 8 7 5 6 5 5 5 5 5 6 6 6 6 7 6 6 6 5 5 5 5 5 6 6 7 8 7 6 6
8 6 7 11 4 4 4 1 7 7 4 1 3 7 1 8 5 4 5 9 9 8 8 11 14 14 12 12 12 10 10 10 10 11 10 11 12 12 13 12 12 12 11 11 10 9 8 9 9 10 9 9 8 8 8 8 7 7 7 7 7 7 6 9 10 10 10 9 8 9 8 7 6 6 5 6 5 6 5 6 7 7 6 6 5 6 5 5 6 7 6 8 7 8 7 6 6
8 11 10 10 6 8 9 5 1 1 3 4 3 1 4 2 7 11 12 13 14 13 14 7 6 11 13 13 11 10 10 12 11 12 11 11 11 11 12 11 11 11 11 10 10 9 9 8 8 8 7 6 6 6 7 7 6 6 6 7 8 8 7 7 7 10 9 8 8 8 8 7 7 6 6 5 4 5 6 6 7 7 6 6 6 6 6 6 7 7 7 8 8 7 7 8 8
7 2 7 6 3 4 4 4 8 6 6 3 2 3 5 5 9 5 13 7 4 5 4 4 6 10 9 6 7 8 10 11 11 12 12 12 11 11 11 11 10 11 11 10 9 9 8 7 7 7 7 7 7 7 6 6 5 5 7 6 6 5 6 7 7 8 9 10 7 9 7 6 7 6 6 5 6 8 8 8 8 8 6 6 6 6 5 6 6 7 7 8 7 7 9 9 8
3 3 6 5 10 5 4 5 6 3 2 1 2 5 6 6 2 1 3 2 0 3 4 7 7 8 10 10 12 11 11 11 12 12 12 11 10 10 10 10 10 10 10 9 9 8 7 7 6 6 8 9 9 9 7 7 6 6 7 7 6 6 6 7 7 7 7 8 8 9 8 7 6 6 5 6 7 7 8 8 8 7 6 6 6 6 6 6 7 8 7 8 8 6 8 10 6
6 6 9 6 4 4 4 2 1 2 3 8 1 3 4 7 6 2 4 5 2 3 4 7 9 11 12 11 11 11 11 11 12 13 11 11 10 9 9 10 9 9 9 9 8 7 8 8 7 7 9 9 9 9 8 8 7 8 7 7 7 7 8 9 9 10 10 8 8 8 8 7 7 6 6 6 8 8 8 8 8 7 7 6 6 6 6 6 7 7 7 9 9 8 9 7 6
6 8 6 2 2 3 3 2 1 2 5 5 2 6 2 2 5 3 4 5 3 4 6 9 12 12 13 10 11 13 13 12 11 10 10 10 10 9 9 8 8 9 9 8 8 8 8 8 9 9 9 10 10 10 9 9 9 9 9 8 7 7 8 9 10 11 9 10 9 8 8 8 6 6 6 5 7 8 8 8 8 7 6 6 6 6 7 7 8 7 8 10 8 8 8 7 7
12 8 3 7 3 7 2 2 0 1 2 2 0 1 3 7 7 2 2 6 7 8 9 11 14 13 13 12 12 12 10 9 10 12 12 12 11 11 9 9 7 7 7 7 7 8 8 7 7 8 10 10 10 8 8 7 9 7 7 7 8 9 9 9 9 10 9 11 10 9 8 7 7 6 6 7 7 8 8 7 7 7 6 7 7 7 7 7 8 9 9 8 7 7 7 7 6
1 8 9 3 5 1 5 7 3 5 2 1 3 1 5 5 6 6 7 9 10 10 11 13 14 15 14 13 14 15 14 12 11 11 11 10 9 10 9 9 9 9 9 8 9 8 9 9 9 8 9 9 9 9 8 8 6 9 8 8 7 9 9 10 9 10 10 10 9 10 9 8 7 6 6 7 7 7 7 8 7 7 7 7 8 7 8 8 8 7 6 6 6 7 8 8 6
7 9 7 3 1 1 5 1 2 1 3 4 2 1 4 7 8 7 7 8 10 15 16 11 13 14 14 15 15 15 14 12 12 12 11 10 10 9 8 8 8 8 8 8 8 9 9 10 10 10 11 10 10 9 10 9 8 8 12 11 9 9 10 9 10 10 11 10 9 8 9 7 7 6 6 7 7 7 7 8 8 6 7 7 8 8 7 8 8 7 7 7 7 8 8 6 6
5 6 6 7 4 3 9 7 2 2 1 1 3 3 6 9 2 6 4 5 8 4 4 11 14 15 14 13 12 11 12 11 11 11 10 10 10 10 9 9 9 9 10 10 9 9 10 11 10 11 11 10 11 9 9 8 7 8 10 12 11 9 10 10 11 10 11 10 9 9 8 7 8 6 6 7 7 6 7 8 8 8 8 8 8 8 7 7 7 8 7 5 6 7 7 7 6
Wind_Direction
326 324 312 317 58 121 51 358 31 320 47 83 88 318 263 269 242 7 0 338 20 292 304 358 194 117 188 198 183 202 186 156 212 126 216 246 307 144 124 124 125 136 146 146 151 156 156 154 152 151 153 149 142 139 139 140 141 141 139 136 134 131 130 128 126 128 128 126 125 125 123 120 120 118 115 114 113 113 112 113 110 108 106 103 99 93 89 86 84 83 86 95 101 98 99 101 100
318 325 310 337 253 48 330 91 102 353 39 66 267 138 250 292 19 248 30 55 200 283 315 315 269 207 169 151 199 274 288 196 176 177 290 265 85 69 149 139 142 144 146 147 150 150 151 153 152 152 151 148 142 139 139 138 140 142 140 137 135 133 132 129 129 130 129 128 128 127 126 125 122 119 117 113 111 112 114 116 116 116 111 105 100 94 88 83 81 81 85 92 96 99 98 99 101
322 345 333 23 31 68 80 37 312 67 47 296 252 214 317 326 250 262 170 196 239 282 294 273 220 336 212 327 333 0 270 77 53 60 56 354 135 220 155 141 140 141 144 148 147 146 148 153 152 152 150 147 141 138 138 139 140 142 142 138 137 135 131 131 131 131 130 128 129 129 127 126 121 118 115 113 112 111 112 115 115 112 108 103 96 92 85 79 78 84 87 90 95 98 97 97 98
318 17 328 33 300 31 60 23 104 124 184 227 311 269 256 221 275 238 155 201 224 278 321 337 91 221 163 246 238 133 268 8 182 148 162 209 239 133 148 142 140 142 145 150 146 145 149 155 150 152 150 146 141 138 137 138 140 143 144 141 139 136 134 131 133 132 130 128 128 128 127 125 121 119 117 114 112 112 113 115 112 107 100 94 92 86 79 74 76 80 83 86 90 94 98 97 95
345 303 87 93 107 349 104 136 141 114 224 210 176 270 240 232 261 296 134 182 236 242 283 254 11 309 313 192 187 211 252 253 52 52 157 186 114 141 147 144 144 146 149 147 145 146 152 154 150 150 149 146 142 139 137 138 141 143 145 143 139 138 135 134 133 132 130 128 126 126 126 124 120 117 116 115 112 110 109 108 110 108 102 94 89 86 79 76 74 74 79 84 91 93 94 92 89
18 26 346 95 301 162 51 96 82 211 218 148 190 242 230 225 275 288 300 160 218 228 207 77 235 323 340 263 184 171 329 44 186 227 164 186 142 143 150 143 145 144 141 139 143 146 153 153 149 150 147 146 144 140 137 138 141 143 146 143 141 138 137 134 132 131 130 127 126 125 124 121 118 116 116 115 112 108 99 95 105 108 104 97 92 88 79 73 75 76 76 81 86 87 85 84 78
341 40 352 28 28 55 194 172 210 208 255 163 231 218 217 257 254 310 328 17 199 162 7 186 218 277 347 299 30 83 347 292 152 202 174 142 128 134 141 139 134 133 128 129 132 132 149 149 146 145 146 144 143 140 140 139 142 146 147 143 140 140 136 134 132 129 129 127 124 124 123 122 118 115 118 117 112 107 102 102 107 104 102 100 94 84 74 67 66 67 69 73 78 81 80 80 78
61 135 295 116 198 56 169 203 229 167 264 180 228 212 218 230 259 314 304 358 262 90 277 219 303 141 252 7 270 268 22 19 12 94 114 130 128 129 127 126 124 120 121 122 124 132 151 139 141 141 143 144 142 142 141 140 143 146 146 142 141 140 136 132 130 128 128 126 124 123 121 122 121 119 119 120 118 115 114 114 113 114 102 90 86 81 71 66 63 61 63 67 70 74 75 74 72
339 86 287 71 181 32 76 204 234 233 281 294 270 209 230 212 192 281 299 247 326 186 140 252 178 47 255 297 229 299 36 2 66 99 120 125 130 128 120 113 126 120 114 118 125 134 136 140 136 143 144 146 141 140 140 140 143 145 144 143 141 138 135 131 131 130 128 123 123 123 124 124 124 123 122 126 125 126 126 125 123 122 111 95 88 82 75 67 61 59 58 61 62 66 66 63 63
31 92 252 172 115 205 196 286 215 225 222 210 219 235 202 203 235 191 263 307 263 312 220 201 192 226 211 217 286 312 353 72 104 91 108 117 119 116 110 105 118 121 117 118 128 116 129 141 137 138 142 140 138 140 140 141 143 144 144 140 137 137 133 131 129 129 127 125 123 126 127 128 128 127 128 128 130 131 133 126 117 110 108 93 88 81 74 64 57 51 50 53 53 51 52 56 58
200 18 141 137 161 203 200 250 248 284 255 243 273 241 222 173 157 264 197 257 307 268 282 188 264 232 128 254 212 152 128 144 121 129 127 124 117 116 113 110 116 126 130 133 131 123 133 136 140 137 135 133 138 138 140 142 143 141 139 134 134 132 130 128 128 126 129 128 128 130 131 134 136 137 137 137 134 132 129 127 125 112 104 93 81 75 61 52 46 38 38 40 43 42 41 45 51
130 162 131 214 203 187 209 211 222 251 269 353 278 200 216 181 124 273 257 270 281 275 253 119 268 159 253 230 274 199 120 128 145 131 125 124 118 116 116 120 123 123 128 130 124 123 128 135 139 142 132 134 136 140 141 141 140 137 136 135 133 129 128 129 126 128 131 130 132 135 137 141 146 146 145 141 138 135 134 133 127 132 129 106 90 77 56 30 25 20 15 18 25 28 27 33 39
158 136 114 160 210 190 178 206 227 240 261 236 230 219 152 132 177 214 239 235 276 324 294 178 204 91 277 225 291 130 126 167 143 134 127 124 124 119 113 116 121 126 129 125 122 123 126 127 134 135 140 140 140 141 142 140 135 136 134 136 136 131 132 131 130 134 136 135 136 140 146 148 150 151 152 147 144 144 143 142 140 133 133 128 124 83 49 21 4 0 2 2 5 7 10 12 15
144 190 138 231 81 183 164 207 197 220 253 233 230 167 173 161 216 214 184 260 254 223 238 211 152 160 251 27 257 212 177 156 136 127 117 112 112 114 116 118 122 126 124 126 125 122 122 125 129 136 140 135 143 142 142 139 138 137 136 138 136 135 135 133 134 138 141 141 142 144 145 144 144 145 143 143 142 146 141 146 150 167 151 145 146 93 46 359 353 347 347 350 352 351 353 356 358
216 165 118 140 202 160 209 185 192 204 252 184 228 169 214 243 188 150 174 213 258 219 263 129 174 106 256 157 266 194 160 156 144 128 113 108 110 114 118 121 123 122 121 122 121 122 124 125 131 128 130 135 135 134 142 146 144 142 139 138 138 140 137 137 140 143 145 143 146 144 145 143 141 136 132 132 132 139 145 152 150 145 146 161 155 94 5 357 347 336 333 343 346 347 347 349 352
166 103 92 183 220 192 236 200 160 209 247 220 234 200 180 278 216 182 231 191 262 312 128 225 248 201 211 181 276 146 147 145 138 124 118 115 116 116 119 124 129 125 121 125 127 124 126 126 127 129 133 137 140 141 149 152 150 148 144 141 141 142 142 142 144 144 143 144 145 144 143 139 134 135 138 129 125 123 115 98 109 103 125 165 120 116 47 340 333 329 334 341 345 346 346 348 354
87 95 242 203 237 195 195 182 158 225 227 252 223 172 192 226 235 208 149 160 230 251 66 277 215 2 207 226 158 133 139 131 130 127 124 128 132 133 129 133 132 124 128 130 131 135 131 132 132 136 140 142 143 147 153 151 157 153 150 147 146 145 147 148 144 145 144 146 144 144 127 91 91 73 88 98 122 119 121 116 118 123 122 141 134 138 217 333 331 331 337 341 343 346 349 350 347
101 205 204 233 204 200 182 185 187 175 190 240 186 203 173 236 270 237 79 86 197 355 87 310 351 19 329 48 123 132 133 138 142 142 145 142 145 141 145 146 143 144 139 137 134 138 139 139 139 143 147 148 150 155 155 157 157 152 153 152 149 151 150 150 141 139 144 131 147 127 107 119 93 86 122 133 90 116 89 126 134 127 128 127 131 123 101 352 326 329 333 343 351 351 348 347 337
188 190 175 233 178 225 154 188 192 143 218 235 226 190 189 224 184 269 195 209 81 69 325 11 326 1 48 88 115 128 139 143 152 155 157 159 160 155 153 149 145 141 142 142 143 142 142 142 150 152 154 153 158 158 158 161 151 150 151 146 150 151 152 138 133 135 117 130 107 116 121 105 119 118 143 154 160 144 134 79 133 120 125 118 135 126 81 14 349 349 350 351 348 336 346 330 327
229 140 220 226 190 213 210 169 202 235 165 218 248 236 185 243 168 158 220 215 78 187 198 336 257 241 163 129 134 139 147 154 163 164 163 161 159 155 148 147 146 149 146 152 150 144 146 153 157 158 155 161 166 163 160 156 154 151 152 150 146 140 130 130 129 130 132 116 120 116 120 127 120 141 201 49 54 95 52 28 4 44 69 44 61 62 41 324 334 335 329 336 341 331 316 317 320
248 202 223 216 204 172 263 205 187 218 186 225 232 64 229 267 220 165 187 308 212 243 222 182 208 210 170 159 150 151 153 164 169 168 164 161 138 118 126 132 145 146 147 144 153 160 159 160 155 159 163 167 171 160 159 156 155 154 153 151 143 136 126 130 132 131 128 119 119 125 125 122 120 120 55 45 66 69 79 48 5 19 27 20 25 4 349 309 346 310 330 327 282 290 311 311 325
130 227 219 185 42 206 248 209 214 206 174 247 309 219 242 253 56 186 169 208 229 212 237 215 228 184 165 168 164 157 165 174 176 175 176 163 151 137 129 119 118 132 147 154 163 167 164 168 164 159 168 170 169 161 159 159 156 161 157 152 142 131 137 137 130 138 129 129 141 142 134 119 120 108 40 26 56 70 46 53 47 15 14 0 349 309 287 286 284 293 275 269 245 222 257 278 276
235 220 232 173 190 163 247 189 235 187 208 196 240 237 256 230 268 216 163 186 232 204 231 217 209 186 179 158 157 170 174 178 181 179 168 158 151 144 143 142 147 153 160 160 155 162 162 169 170 169 168 172 162 168 160 164 162 159 156 153 146 138 143 148 139 136 138 146 157 154 139 142 132 129 51 10 342 22 355 24 24 25 4 327 303 294 301 296 298 309 322 317 313 305 295 268 262
231 229 57 224 164 219 239 218 254 225 203 229 218 336 281 324 283 269 240 235 224 192 247 227 195 138 150 165 181 175 180 180 175 167 164 154 144 142 143 146 148 146 153 159 161 164 168 176 175 180 170 175 163 172 168 168 159 158 161 166 155 159 153 159 155 144 151 163 165 167 143 142 150 151 189 0 319 15 314 22 53 22 336 276 285 286 300 312 320 318 319 314 317 317 315 310 284
219 237 224 274 154 233 244 237 277 289 281 278 321 298 261 234 235 325 258 251 253 258 192 170 144 155 167 172 181 178 165 159 168 159 140 131 128 129 133 138 149 155 157 168 169 171 174 178 174 187 173 179 169 171 169 169 160 158 165 171 148 174 156 156 164 163 174 177 176 170 152 144 140 159 181 235 164 273 307 325 334 315 322 304 324 315 319 314 320 337 322 313 313 326 335 325 334
204 230 178 217 241 260 239 272 260 248 267 220 296 269 282 265 278 266 258 257 269 152 132 144 145 160 182 186 182 173 175 174 162 161 153 139 140 143 154 157 161 169 173 171 174 179 174 176 180 186 170 177 171 174 175 169 162 163 167 164 158 167 152 149 160 172 181 184 191 180 166 152 163 174 200 194 182 223 242 286 309 305 297 297 279 292 306 303 304 331 334 324 326 320 318 296 328
181 181 210 222 232 251 243 220 270 261 210 183 218 272 273 269 153 267 23 257 129 122 142 153 162 177 171 170 182 185 179 181 173 142 136 149 154 160 162 165 172 175 168 177 180 178 177 173 182 183 167 174 174 179 174 169 162 160 163 156 159 160 145 147 166 168 175 194 192 177 168 168 167 178 187 185 176 191 207 216 237 229 251 252 194 247 297 276 275 273 290 301 307 306 295 307 330
59 143 10 249 236 231 236 228 239 313 290 186 180 248 257 259 174 243 247 197 154 135 152 161 173 169 166 175 182 189 192 171 156 162 162 166 172 169 170 171 173 169 179 183 182 177 176 178 176 181 169 174 188 172 172 163 163 156 158 162 156 161 143 156 163 165 188 201 183 173 177 182 173 178 180 177 191 177 193 193 207 190 219 241 207 221 274 264 246 268 273 266 267 274 291 317 321
257 282 273 271 248 236 217 226 224 167 252 143 164 300 274 222 225 234 232 166 160 153 164 171 172 167 164 174 179 192 194 180 174 182 180 166 158 167 171 176 172 181 194 181 176 175 179 174 166 179 171 174 187 171 175 160 153 157 164 166 161 165 157 155 167 179 194 195 183 180 184 175 181 184 184 182 198 187 183 172 190 218 250 269 246 231 268 284 308 333 347 2 339 357 343 314 317
144 165 176 295 280 277 232 193 218 185 227 162 139 255 240 252 242 254 238 165 149 143 161 170 169 168 170 173 187 194 185 186 195 186 168 166 168 174 173 180 186 183 177 181 174 180 175 170 166 168 176 179 183 175 169 162 161 170 166 163 166 166 170 163 182 184 192 181 182 191 172 176 172 160 163 169 162 162 162 146 120 337 298 279 253 223 154 120 45 13 5 22 314 300 297 295 328
177 178 131 210 189 261 195 173 173 198 173 194 158 244 261 262 265 259 242 173 156 165 169 167 170 174 175 182 189 194 197 198 190 166 173 166 169 176 175 180 184 187 178 177 182 177 171 170 169 176 178 181 183 176 172 172 170 171 169 169 168 171 169 172 174 179 191 180 175 168 162 156 133 148 155 153 154 150 148 117 97 303 296 299 333 35 59 45 52 356 349 332 312 340 333 300 335
200 132 219 146 194 283 286 215 162 183 211 167 154 254 250 259 260 245 234 192 177 178 169 172 172 177 180 184 196 199 203 190 156 176 172 170 172 176 178 184 185 186 186 179 175 170 172 171 177 181 183 184 186 181 174 168 172 175 168 167 168 169 162 162 164 182 184 175 163 146 146 137 135 132 140 144 139 134 130 118 158 233 306 349 338 22 56 34 21 338 294 167 14 323 357 326 355
301 206 87 189 156 237 336 228 186 180 147 178 188 232 298 272 253 236 195 181 198 191 173 173 175 178 180 186 195 201 189 186 181 182 177 171 180 177 182 185 189 187 179 173 172 171 172 173 181 186 189 189 182 175 163 158 167 175 173 171 170 163 162 166 167 158 161 171 141 136 137 133 125 124 141 145 133 137 121 121 155 167 149 139 136 108 94 118 70 350 324 38 130 273 331 318 319
226 64 184 197 169 151 210 292 233 193 171 210 218 219 227 256 282 270 237 180 186 193 175 179 177 175 183 185 192 195 199 195 196 192 183 175 172 175 184 189 187 184 180 176 176 173 174 173 178 185 188 184 174 168 168 169 173 170 175 173 163 163 174 167 147 154 164 139 136 138 133 128 126 144 147 140 127 120 110 124 121 47 194 107 82 49 27 44 56 121 300 26 73 146 309 337 323
155 134 154 277 91 171 170 173 243 156 212 192 198 221 228 248 262 270 189 241 180 185 178 178 179 181 180 186 189 199 203 202 209 189 175 165 162 174 180 184 183 181 175 174 176 175 161 163 166 175 173 173 162 164 175 164 140 127 122 144 135 132 112 108 139 146 134 128 134 130 125 122 131 134 123 126 116 124 119 95 69 6 343 44 52 35 8 25 90 98 148 313 261 208 235 314 319
168 149 172 167 146 193 185 202 227 168 190 216 191 202 223 243 253 249 267 182 196 202 177 172 179 181 181 185 193 199 205 214 161 159 165 160 164 170 174 171 172 163 158 170 164 138 139 153 157 159 150 130 131 168 155 136 126 147 148 110 100 96 105 112 90 104 110 117 123 122 121 119 125 127 126 126 115 107 91 72 51 21 21 54 64 42 1 17 41 83 69 84 25 33 54 8 359
149 126 140 192 161 276 269 277 250 198 158 208 205 200 204 231 240 238 223 111 110 132 180 171 175 181 184 190 196 204 209 202 146 156 160 163 164 165 161 163 158 145 141 143 94 47 22 1 25 89 53 81 136 151 160 145 150 149 117 157 126 127 125 109 94 99 109 122 122 118 116 122 133 130 135 126 104 107 90 70 50 32 19 47 55 48 20 18 46 136 113 62 71 56 18 357 15
150 154 146 160 174 199 229 187 249 260 177 257 203 194 217 225 239 238 161 133 162 166 175 181 183 184 187 191 201 205 197 106 143 146 154 160 162 161 159 163 160 157 160 164 140 130 129 128 72 41 35 149 147 131 121 149 241 275 129 147 135 132 129 125 114 111 117 119 118 118 124 130 131 138 144 137 110 92 81 67 68 55 40 43 70 59 49 47 52 54 75 66 30 77 53 9 348
131 145 169 129 241 227 288 272 238 214 150 252 183 198 223 227 236 239 176 185 191 184 177 182 182 186 192 200 205 201 166 168 163 164 160 164 164 161 162 165 171 177 174 171 119 121 131 143 136 149 112 303 187 159 169 182 154 122 113 133 132 105 65 96 111 121 119 114 114 118 125 131 140 134 130 122 94 83 94 94 97 93 79 99 97 72 59 52 41 45 36 85 80 45 54 18 17
148 115 96 169 229 141 220 267 356 194 162 226 178 190 248 256 261 259 162 185 206 198 202 187 183 184 192 200 199 193 191 169 177 176 174 165 163 164 161 167 177 180 166 145 143 136 147 156 150 137 141 175 218 186 161 118 106 96 82 96 72 83 121 112 98 105 103 109 113 119 117 127 123 110 107 89 87 88 100 92 90 81 74 75 103 98 74 66 45 48 52 51 96 56 11 29 34
173 150 144 173 150 200 150 213 307 295 315 95 112 225 299 256 244 261 148 245 134 176 164 239 234 220 206 207 203 199 194 189 188 177 165 161 168 174 174 174 175 173 158 161 152 156 161 168 167 167 173 170 169 173 152 135 118 102 105 89 92 90 88 103 102 87 112 116 113 107 106 97 100 99 87 92 104 94 87 91 89 85 82 64 83 88 80 71 66 65 58 70 58 133 68 7 17
208 213 174 194 202 233 272 2 40 43 248 251 166 288 254 261 238 233 292 95 194 190 171 196 203 209 205 209 208 202 207 200 192 185 167 161 166 165 173 178 175 167 169 166 166 168 161 173 182 188 179 169 165 162 156 148 147 142 139 134 134 116 127 149 149 148 141 127 118 113 96 93 96 87 78 84 94 97 88 85 88 89 81 69 66 80 85 73 51 50 33 56 63 41 123 68 4
170 235 169 187 196 178 287 32 98 150 201 272 131 199 263 323 247 237 219 188 207 136 192 199 196 203 208 215 209 200 198 195 190 164 157 160 167 171 182 175 170 167 168 164 172 172 170 178 186 186 183 175 156 150 154 147 142 156 161 161 153 153 148 137 90 115 121 117 111 103 93 76 78 88 74 73 80 82 87 82 83 82 76 73 74 81 72 67 65 66 52 60 52 54 85 80 41
214 189 165 163 168 187 211 115 124 218 263 291 147 170 199 275 281 329 272 203 222 230 227 214 206 206 213 217 210 203 196 188 181 170 167 169 177 185 182 162 168 167 161 166 183 185 180 181 183 180 162 163 162 149 153 154 151 155 150 145 152 155 156 147 138 125 119 118 103 95 92 81 74 67 76 71 72 81 87 84 84 85 84 73 75 70 78 76 83 65 66 68 72 62 70 95 71
214 186 154 186 175 213 155 127 171 218 45 272 330 33 192 249 259 339 112 169 252 238 224 219 213 211 213 211 202 200 192 181 174 167 172 180 189 190 170 161 164 157 162 176 187 190 180 172 170 166 163 157 160 158 154 156 148 151 147 140 124 84 112 126 127 124 117 109 99 92 89 84 71 60 59 72 71 74 75 83 80 79 79 73 75 76 71 74 75 83 71 65 68 66 65 75 77
226 167 161 171 192 217 141 131 202 298 292 254 242 265 212 284 275 6 72 263 253 238 227 221 213 212 207 191 196 189 180 176 176 176 181 191 190 176 166 154 157 163 168 177 182 177 172 165 166 167 166 157 159 163 156 144 139 139 138 141 131 128 127 124 124 121 116 112 106 101 97 85 76 71 65 63 73 67 73 73 73 74 75 75 70 72 78 72 71 72 70 77 75 75 62 64 76
142 135 120 114 109 177 92 154 167 31 243 246 215 237 151 279 258 195 161 209 191 219 246 238 205 197 192 196 193 185 180 178 176 178 184 187 175 169 161 161 160 158 165 173 177 178 175 174 171 174 169 153 159 161 148 143 140 151 149 147 148 141 140 134 129 124 119 116 115 106 97 86 81 81 85 70 73 74 77 74 77 73 66 69 70 68 65 73 69 76 73 73 67 71 67 71 74
138 168 141 112 47 45 95 317 77 193 256 260 212 189 168 220 291 279 236 243 200 185 204 212 198 200 194 194 194 185 177 174 168 171 177 171 163 167 163 160 160 161 165 175 181 178 179 182 176 171 164 161 160 156 147 144 149 157 143 145 145 145 145 148 141 135 133 129 120 112 106 96 87 87 87 88 73 74 79 76 75 75 72 70 68 67 67 73 80 80 74 71 69 71 73 74 68
170 133 133 155 195 135 237 65 215 217 188 258 189 144 19 251 221 235 252 235 234 217 214 215 200 196 190 194 191 180 173 168 167 173 174 174 173 166 165 157 157 164 171 179 180 178 181 182 180 174 170 165 164 156 151 147 150 152 146 143 137 135 161 152 146 136 137 131 131 127 121 113 115 98 93 91 79 77 85 79 66 68 71 65 75 75 75 79 81 79 77 76 73 70 71 72 69
165 170 169 161 150 182 206 202 51 328 280 254 144 231 262 237 284 231 238 244 225 216 219 208 171 187 189 189 178 170 173 174 178 177 181 181 176 169 163 159 161 165 172 177 175 177 180 181 179 177 161 150 142 144 143 143 144 141 132 128 147 159 161 145 139 134 131 128 130 125 124 126 121 120 112 91 93 87 74 74 80 76 74 79 81 83 81 77 78 77 77 77 73 75 73 69 67
193 68 151 171 146 164 193 189 192 204 195 229 268 118 232 144 236 216 209 238 282 234 201 172 167 177 177 159 159 160 168 176 177 183 186 182 173 165 163 162 163 165 170 173 176 178 171 172 170 167 135 130 123 122 118 121 121 122 117 136 157 150 146 134 133 133 131 126 121 117 115 119 117 116 101 96 91 88 85 83 80 80 77 75 72 74 68 67 68 74 75 79 76 72 71 70 63
208 158 79 124 215 130 143 196 138 191 166 312 157 192 188 180 234 277 259 258 302 132 138 137 147 148 147 158 168 174 177 177 180 184 182 176 169 165 162 163 163 163 168 171 174 171 161 150 141 132 125 122 123 122 126 127 124 120 123 135 138 140 130 118 111 105 102 109 118 117 117 111 106 101 91 92 81 89 89 85 77 73 72 71 69 72 71 70 71 79 75 74 75 68 71 66 63
191 121 193 204 141 107 88 59 95 111 84 241 164 282 287 296 314 41 38 81 83 107 129 141 148 153 156 165 169 173 178 178 181 183 178 169 164 168 165 161 160 162 167 173 170 151 135 129 127 121 125 125 124 125 126 129 130 125 119 124 138 137 133 129 122 113 111 108 110 110 107 104 98 93 97 93 92 83 82 83 79 71 66 67 70 67 70 71 71 71 73 76 79 73 71 65 57
115 195 225 127 121 112 136 196 357 66 161 251 121 186 240 101 271 327 54 93 139 143 147 150 147 152 160 165 171 177 183 184 179 171 167 167 167 164 161 157 159 163 165 164 149 132 137 143 145 130 129 129 130 132 136 139 134 126 131 140 136 121 119 117 118 118 118 114 108 105 106 102 97 104 102 98 92 85 80 79 80 74 72 70 71 64 60 63 70 64 71 79 78 78 74 64 57
181 185 206 147 213 215 304 91 242 127 185 264 314 261 243 185 234 336 252 173 183 167 160 152 159 166 166 166 174 180 175 167 171 171 170 174 172 166 160 153 147 149 155 151 130 130 136 143 140 134 134 130 132 133 129 127 127 125 130 128 124 119 118 113 110 113 115 114 113 109 102 105 105 101 96 96 90 88 88 80 83 82 71 65 60 62 65 64 68 75 76 80 75 76 73 65 52
109 130 185 186 105 149 135 200 179 114 224 70 285 54 217 215 223 203 225 197 179 160 166 178 174 170 169 173 176 177 180 178 172 172 177 172 162 156 152 149 149 148 149 147 138 131 135 136 136 131 122 118 115 113 107 98 109 124 118 107 106 114 114 115 118 118 112 108 109 111 111 105 107 97 95 92 87 91 89 90 82 78 71 64 66 63 68 70 72 71 75 75 69 73 69 63 56
172 171 181 162 298 223 108 36 147 206 165 175 169 280 278 247 214 183 212 192 192 176 176 178 174 174 180 179 177 179 177 172 172 173 171 159 150 146 143 139 136 136 138 139 138 136 134 132 131 128 123 120 113 107 113 134 142 132 123 118 111 107 107 108 107 106 104 105 106 103 104 107 98 82 90 84 88 88 85 86 79 70 71 70 71 69 68 77 76 76 72 75 72 70 70 61 59
158 146 185 173 135 136 161 230 10 93 55 232 114 259 258 265 168 193 182 212 177 202 211 180 173 176 179 180 178 172 167 170 169 168 159 148 141 141 137 134 136 138 141 142 137 129 129 128 127 126 123 123 111 114 132 121 103 113 117 121 119 115 111 109 106 103 101 103 104 105 109 92 85 79 68 87 87 86 85 86 84 78 76 73 70 69 71 79 81 80 73 71 74 74 74 66 59